Location: Eschentzwiller
(47.7125°N, 7.3981°E)
Time: 04:34:35
(UTC+00:00)

Aureole 3 Rocket - Pass Details

Date: 27 October 2020
Orbit: 399 x 1739 km, 82.5° (Epoch: 01 December)

Event Time Altitude Azimuth Distance (km) Brightness Sun altitude
Rises 18:05:54 0° 200° (SSW) 2,610 6.5 -18.3°
Reaches altitude 10° 18:07:46 10° 204° (SSW) 1,843 5.8 -18.6°
Maximum altitude 18:11:43 58° 285° (WNW) 794 3.8 -19.3°
Drops below altitude 10° 18:17:14 10° 4° (N) 2,558 6.2 -20.2°
Sets 18:20:13 0° 8° (N) 3,740 7.0 -20.7°
